Weather in Peski

Russia / Zabaykalsky Krai     50°46′10″N   108°07′14″E
temp.,
°C
wind,
m/s
gust,
m/s
humid.,
%
clouds,
%
prec.,
mm/h
press.,
hPa
HPBL,
m
13 april, tue
tue1300:00−3wnw115224 0.0 102613
03:00−4w22615 0.0 102612
06:00−5w227410 0.0 102615
09:00−2wsw246914 0.0 1024454
12:00+4wsw45385 0.0 10201534
15:00+7wsw57265 0.0 10161950
18:00+8w5828100 0.0 10132303
21:00+4nw2254100 0.0 101346
14 april, wed
wed1400:00+3wsw1162100 0.0 101421
03:00+1w1497100 1.1 1016230
06:000nw2679100 0.3 1016595
09:000nnw3667100 0.4 1018978
12:00+1nnw4647100 0.1 10181497
15:00+3nnw6732100 0.1 10162057
18:00+3nnw6732100 0.0 10152103
21:000nnw3745100 0.0 1018241
15 april, thu
thu1500:00−3w2262100 0.0 101928
03:00−5wsw22805 0.0 101829
06:00−6sw228785 0.0 101717
09:00−2sw2361100 0.0 1015305
12:00+3wsw5735100 0.0 10121432
15:00+5wnw6727100 0.0 10102772
18:00+2nw8136763 1.3 10131291
21:00−1nw5116010 1.4 1017569
16 april, fri
fri1600:00−3wnw387210 0.0 1021219
03:00−6w35826 0.0 1023117
06:00−6wsw2385100 0.0 102568
09:00−2w376485 0.0 1024640
12:00+4w463550 0.0 10221615
15:00+8w57275 0.0 10181960
18:00+9wnw5731100 0.0 10161832
21:00+4w11475 0.0 101712
17 april, sat
sat1700:00+1s01585 0.0 101813
03:00−1e11635 0.0 101711
06:00−2ene11665 0.0 101613
09:00+3ene12505 0.0 1014178
12:00+11w13320 0.0 1009670
15:00+16wsw46240 0.0 10051958
18:00+17wsw57190 0.0 10022514
21:00+10ene11360 0.0 100211